Time,TemperatureF,DewpointF,PressureIn,WindDirection,WindDirectionDegrees,WindSpeedMPH,WindSpeedGustMPH,Humidity,HourlyPrecipIn,Conditions,Clouds,dailyrainin,SolarRadiationWatts/m^2,SoftwareType,DateUTC
2013-06-10 00:00:00,77.7,74.9,30.08,SSE,150,6.0,11.0,91,0.00,,,0.01,0,Wunderground v.1.15,2013-06-10 04:00:00,
2013-06-10 00:01:00,77.7,74.9,30.08,SSE,150,6.0,11.0,91,0.00,,,0.01,0,Wunderground v.1.15,2013-06-10 04:01:00,
2013-06-10 00:02:00,77.7,74.9,30.08,SSE,150,6.0,11.0,91,0.00,,,0.01,0,Wunderground v.1.15,2013-06-10 04:02:00,
2013-06-10 00:03:00,77.7,74.9,30.08,SSE,157,6.0,11.0,91,0.00,,,0.01,0,Wunderground v.1.15,2013-06-10 04:03:00,
2013-06-10 00:06:00,77.7,74.9,30.08,SSE,148,6.0,11.0,91,0.00,,,0.01,0,Wunderground v.1.15,2013-06-10 04:06:00,
2013-06-10 00:09:00,77.8,75.0,30.08,SE,146,7.0,11.0,91,0.00,,,0.01,0,Wunderground v.1.15,2013-06-10 04:09:00,
2013-06-10 00:14:00,77.9,75.1,30.08,SSE,150,8.0,11.0,91,0.00,,,0.01,0,Wunderground v.1.15,2013-06-10 04:14:00,
2013-06-10 00:19:00,78.0,75.2,30.08,SSE,159,9.0,11.0,91,0.00,,,0.01,0,Wunderground v.1.15,2013-06-10 04:19:00,
2013-06-10 00:25:00,78.1,74.9,30.08,SE,145,9.0,11.0,90,0.00,,,0.01,0,Wunderground v.1.15,2013-06-10 04:25:00,
2013-06-10 00:30:00,78.0,74.8,30.08,SSE,149,9.0,9.0,90,0.00,,,0.01,0,Wunderground v.1.15,2013-06-10 04:30:00,
2013-06-10 00:35:00,78.0,74.8,30.08,SSE,152,8.0,10.0,90,0.00,,,0.00,0,Wunderground v.1.15,2013-06-10 04:35:00,
2013-06-10 00:41:00,78.0,74.8,30.08,SSE,154,8.0,10.0,90,0.00,,,0.00,0,Wunderground v.1.15,2013-06-10 04:41:00,
2013-06-10 00:46:00,77.9,74.7,30.08,SSE,155,8.0,10.0,90,0.00,,,0.00,0,Wunderground v.1.15,2013-06-10 04:46:00,
2013-06-10 00:51:00,78.0,75.2,30.08,SSE,157,8.0,10.0,91,0.00,,,0.00,0,Wunderground v.1.15,2013-06-10 04:51:00,
2013-06-10 00:57:00,78.0,75.2,30.08,SSE,157,7.0,10.0,91,0.00,,,0.00,0,Wunderground v.1.15,2013-06-10 04:57:00,
2013-06-10 01:02:00,77.9,75.1,30.08,SSE,162,6.0,12.0,91,0.00,,,0.00,0,Wunderground v.1.15,2013-06-10 05:02:00,
2013-06-10 01:07:00,77.9,75.1,30.08,SSE,163,5.0,12.0,91,0.00,,,0.00,0,Wunderground v.1.15,2013-06-10 05:07:00,
2013-06-10 01:12:00,77.8,75.0,30.08,SSE,158,6.0,12.0,91,0.00,,,0.00,0,Wunderground v.1.15,2013-06-10 05:12:00,
2013-06-10 01:18:00,77.9,75.1,30.08,South,169,5.0,12.0,91,0.00,,,0.00,0,Wunderground v.1.15,2013-06-10 05:18:00,
2013-06-10 01:23:00,78.0,75.2,30.08,South,170,5.0,12.0,91,0.00,,,0.00,0,Wunderground v.1.15,2013-06-10 05:23:00,
2013-06-10 01:28:00,78.1,75.3,30.08,SSE,165,6.0,12.0,91,0.00,,,0.00,0,Wunderground v.1.15,2013-06-10 05:28:00,
2013-06-10 01:34:00,77.9,75.1,30.08,SSE,164,7.0,12.0,91,0.00,,,0.00,0,Wunderground v.1.15,2013-06-10 05:34:00,
2013-06-10 01:39:00,77.9,75.1,30.08,SSE,163,6.0,12.0,91,0.00,,,0.00,0,Wunderground v.1.15,2013-06-10 05:39:00,
2013-06-10 01:44:00,77.9,75.4,30.07,SSE,164,5.0,12.0,92,0.00,,,0.00,0,Wunderground v.1.15,2013-06-10 05:44:00,
2013-06-10 01:50:00,77.6,74.8,30.07,SSE,164,5.0,5.0,91,0.00,,,0.00,0,Wunderground v.1.15,2013-06-10 05:50:00,
2013-06-10 01:55:00,77.4,74.6,30.07,SSE,161,5.0,12.0,91,0.00,,,0.00,0,Wunderground v.1.15,2013-06-10 05:55:00,
2013-06-10 02:01:00,77.1,74.6,30.07,SSE,159,5.0,12.0,92,0.00,,,0.00,0,Wunderground v.1.15,2013-06-10 06:01:00,
2013-06-10 02:06:00,77.0,74.5,30.07,SSE,159,4.0,12.0,92,0.00,,,0.00,0,Wunderground v.1.15,2013-06-10 06:06:00,
2013-06-10 02:12:00,76.8,74.3,30.07,SSE,159,3.0,11.0,92,0.00,,,0.00,0,Wunderground v.1.15,2013-06-10 06:12:00,
2013-06-10 02:17:00,76.7,74.2,30.07,SSE,159,3.0,11.0,92,0.00,,,0.00,0,Wunderground v.1.15,2013-06-10 06:17:00,
2013-06-10 02:23:00,76.6,74.4,30.07,SSE,159,4.0,11.0,93,0.00,,,0.00,0,Wunderground v.1.15,2013-06-10 06:23:00,
2013-06-10 02:28:00,76.6,74.4,30.07,SSE,159,4.0,11.0,93,0.00,,,0.00,0,Wunderground v.1.15,2013-06-10 06:28:00,
2013-06-10 02:33:00,76.6,74.4,30.07,SSE,159,3.0,11.0,93,0.00,,,0.00,0,Wunderground v.1.15,2013-06-10 06:33:00,
2013-06-10 02:38:00,76.5,74.3,30.06,SSE,159,4.0,11.0,93,0.00,,,0.00,0,Wunderground v.1.15,2013-06-10 06:38:00,
2013-06-10 02:44:00,76.4,74.2,30.06,SSE,159,3.0,11.0,93,0.00,,,0.00,0,Wunderground v.1.15,2013-06-10 06:44:00,
2013-06-10 02:49:00,76.4,74.2,30.06,SSE,159,4.0,11.0,93,0.00,,,0.00,0,Wunderground v.1.15,2013-06-10 06:49:00,
2013-06-10 02:54:00,76.4,74.2,30.06,SSE,159,4.0,11.0,93,0.00,,,0.00,0,Wunderground v.1.15,2013-06-10 06:54:00,
2013-06-10 03:00:00,76.3,74.1,30.06,SSE,159,3.0,11.0,93,0.00,,,0.00,0,Wunderground v.1.15,2013-06-10 07:00:00,
2013-06-10 03:05:00,76.3,74.1,30.06,SSE,159,4.0,11.0,93,0.00,,,0.00,0,Wunderground v.1.15,2013-06-10 07:05:00,
2013-06-10 03:10:00,76.2,74.0,30.06,SSE,159,3.0,6.0,93,0.00,,,0.00,0,Wunderground v.1.15,2013-06-10 07:10:00,
2013-06-10 03:16:00,76.0,73.8,30.06,SSE,159,3.0,6.0,93,0.00,,,0.00,0,Wunderground v.1.15,2013-06-10 07:16:00,
2013-06-10 03:21:00,76.0,74.1,30.06,SSE,159,3.0,6.0,94,0.00,,,0.00,0,Wunderground v.1.15,2013-06-10 07:21:00,
2013-06-10 03:26:00,76.0,74.1,30.06,SSE,159,3.0,6.0,94,0.00,,,0.00,0,Wunderground v.1.15,2013-06-10 07:26:00,
2013-06-10 03:32:00,75.8,73.9,30.06,SSE,159,3.0,6.0,94,0.00,,,0.00,0,Wunderground v.1.15,2013-06-10 07:32:00,
2013-06-10 03:37:00,75.8,73.9,30.06,SSE,159,3.0,6.0,94,0.00,,,0.00,0,Wunderground v.1.15,2013-06-10 07:37:00,
2013-06-10 03:42:00,75.8,73.9,30.06,SSE,159,4.0,6.0,94,0.00,,,0.00,0,Wunderground v.1.15,2013-06-10 07:42:00,
2013-06-10 03:48:00,75.7,73.8,30.06,SSE,159,3.0,6.0,94,0.00,,,0.00,0,Wunderground v.1.15,2013-06-10 07:48:00,
2013-06-10 03:54:00,75.6,73.8,30.06,SSE,159,3.0,6.0,94,0.00,,,0.00,0,Wunderground v.1.15,2013-06-10 07:54:00,
2013-06-10 03:59:00,75.6,73.8,30.05,SSE,159,3.0,6.0,94,0.00,,,0.00,0,Wunderground v.1.15,2013-06-10 07:59:00,
2013-06-10 04:05:00,75.6,73.8,30.05,SSE,159,4.0,6.0,94,0.00,,,0.00,0,Wunderground v.1.15,2013-06-10 08:05:00,
2013-06-10 04:10:00,75.5,74.0,30.05,SSE,154,4.0,5.0,95,0.00,,,0.00,0,Wunderground v.1.15,2013-06-10 08:10:00,
2013-06-10 04:15:00,75.5,74.0,30.05,SSE,149,5.0,5.0,95,0.00,,,0.00,0,Wunderground v.1.15,2013-06-10 08:15:00,
2013-06-10 04:20:00,75.6,74.1,30.05,SE,145,5.0,5.0,95,0.00,,,0.00,0,Wunderground v.1.15,2013-06-10 08:20:00,
2013-06-10 04:26:00,75.6,74.1,30.05,SE,144,5.0,5.0,95,0.00,,,0.00,0,Wunderground v.1.15,2013-06-10 08:26:00,
2013-06-10 04:31:00,75.6,74.1,30.04,SE,144,4.0,5.0,95,0.00,,,0.00,0,Wunderground v.1.15,2013-06-10 08:31:00,
2013-06-10 04:36:00,75.5,74.0,30.05,SE,144,4.0,5.0,95,0.00,,,0.00,0,Wunderground v.1.15,2013-06-10 08:36:00,
2013-06-10 04:42:00,75.5,74.0,30.05,SE,144,3.0,5.0,95,0.00,,,0.00,0,Wunderground v.1.15,2013-06-10 08:42:00,
2013-06-10 04:47:00,75.4,73.9,30.04,SE,143,3.0,5.0,95,0.00,,,0.00,0,Wunderground v.1.15,2013-06-10 08:47:00,
2013-06-10 04:52:00,75.3,73.8,30.04,SE,143,3.0,6.0,95,0.00,,,0.00,0,Wunderground v.1.15,2013-06-10 08:52:00,
2013-06-10 04:58:00,75.3,73.8,30.04,SE,143,3.0,6.0,95,0.00,,,0.00,0,Wunderground v.1.15,2013-06-10 08:58:00,
2013-06-10 05:03:00,75.3,73.8,30.05,SE,143,3.0,7.0,95,0.00,,,0.00,0,Wunderground v.1.15,2013-06-10 09:03:00,
2013-06-10 05:08:00,75.3,73.8,30.05,SE,143,3.0,7.0,95,0.00,,,0.00,0,Wunderground v.1.15,2013-06-10 09:08:00,
2013-06-10 05:14:00,75.2,73.7,30.05,SE,143,3.0,7.0,95,0.00,,,0.00,0,Wunderground v.1.15,2013-06-10 09:14:00,
2013-06-10 05:19:00,75.1,73.6,30.05,SE,143,3.0,7.0,95,0.00,,,0.00,0,Wunderground v.1.15,2013-06-10 09:19:00,
2013-06-10 05:24:00,75.1,73.9,30.05,SE,143,3.0,7.0,96,0.00,,,0.00,0,Wunderground v.1.15,2013-06-10 09:24:00,
2013-06-10 05:30:00,75.1,73.9,30.05,SE,143,3.0,7.0,96,0.00,,,0.00,0,Wunderground v.1.15,2013-06-10 09:30:00,
2013-06-10 05:35:00,75.1,73.9,30.05,SE,143,4.0,7.0,96,0.00,,,0.00,0,Wunderground v.1.15,2013-06-10 09:35:00,
2013-06-10 05:40:00,75.1,73.9,30.05,SE,143,3.0,3.0,96,0.00,,,0.00,0,Wunderground v.1.15,2013-06-10 09:40:00,
2013-06-10 05:46:00,75.0,73.8,30.05,SE,143,3.0,7.0,96,0.00,,,0.00,0,Wunderground v.1.15,2013-06-10 09:46:00,
2013-06-10 05:51:00,75.0,73.8,30.05,SE,143,3.0,7.0,96,0.00,,,0.00,0,Wunderground v.1.15,2013-06-10 09:51:00,
2013-06-10 05:56:00,75.0,73.8,30.05,SE,143,3.0,7.0,96,0.00,,,0.00,0,Wunderground v.1.15,2013-06-10 09:56:00,
2013-06-10 06:02:00,75.0,73.8,30.05,SE,144,3.0,7.0,96,0.00,,,0.00,0,Wunderground v.1.15,2013-06-10 10:02:00,
2013-06-10 06:07:00,75.0,73.8,30.05,SE,144,3.0,7.0,96,0.00,,,0.00,0,Wunderground v.1.15,2013-06-10 10:07:00,
2013-06-10 06:12:00,75.1,73.9,30.05,SE,144,3.0,6.0,96,0.00,,,0.00,0,Wunderground v.1.15,2013-06-10 10:12:00,
2013-06-10 06:18:00,75.2,74.0,30.05,SE,144,3.0,6.0,96,0.00,,,0.00,0,Wunderground v.1.15,2013-06-10 10:18:00,
2013-06-10 06:23:00,75.2,74.0,30.05,SE,144,3.0,6.0,96,0.00,,,0.00,0,Wunderground v.1.15,2013-06-10 10:23:00,
2013-06-10 06:28:00,75.2,74.0,30.06,SE,144,4.0,6.0,96,0.00,,,0.00,0,Wunderground v.1.15,2013-06-10 10:28:00,
2013-06-10 06:34:00,75.2,74.0,30.05,SE,144,3.0,6.0,96,0.00,,,0.00,5,Wunderground v.1.15,2013-06-10 10:34:00,
2013-06-10 06:39:00,75.1,73.9,30.05,SE,143,3.0,6.0,96,0.00,,,0.00,11,Wunderground v.1.15,2013-06-10 10:39:00,
2013-06-10 06:44:00,75.0,73.8,30.05,SE,143,3.0,6.0,96,0.00,,,0.00,14,Wunderground v.1.15,2013-06-10 10:44:00,
2013-06-10 06:50:00,75.0,73.8,30.05,SE,143,4.0,6.0,96,0.00,,,0.00,19,Wunderground v.1.15,2013-06-10 10:50:00,
2013-06-10 06:56:00,75.0,73.8,30.06,SE,143,3.0,6.0,96,0.00,,,0.00,30,Wunderground v.1.15,2013-06-10 10:56:00,
2013-06-10 07:01:00,75.1,73.9,30.05,SE,144,3.0,6.0,96,0.00,,,0.00,40,Wunderground v.1.15,2013-06-10 11:01:00,
2013-06-10 07:07:00,75.2,74.0,30.05,SE,144,4.0,6.0,96,0.00,,,0.00,47,Wunderground v.1.15,2013-06-10 11:07:00,
2013-06-10 07:13:00,75.4,74.2,30.06,SE,144,4.0,5.0,96,0.00,,,0.00,44,Wunderground v.1.15,2013-06-10 11:13:00,
2013-06-10 07:18:00,75.6,74.4,30.06,SE,143,4.0,5.0,96,0.00,,,0.00,53,Wunderground v.1.15,2013-06-10 11:18:00,
2013-06-10 07:23:00,75.8,74.6,30.06,SE,143,4.0,5.0,96,0.00,,,0.00,62,Wunderground v.1.15,2013-06-10 11:23:00,
2013-06-10 07:29:00,76.0,74.8,30.06,SE,143,4.0,5.0,96,0.00,,,0.00,60,Wunderground v.1.15,2013-06-10 11:29:00,
2013-06-10 07:34:00,76.1,74.9,30.06,SE,143,4.0,5.0,96,0.00,,,0.00,47,Wunderground v.1.15,2013-06-10 11:34:00,
2013-06-10 07:39:00,76.3,75.1,30.06,SE,143,3.0,5.0,96,0.00,,,0.00,53,Wunderground v.1.15,2013-06-10 11:39:00,
2013-06-10 07:45:00,76.5,75.3,30.07,SE,144,4.0,6.0,96,0.00,,,0.00,60,Wunderground v.1.15,2013-06-10 11:45:00,
2013-06-10 07:50:00,76.8,75.3,30.07,SSE,156,5.0,5.0,95,0.00,,,0.00,67,Wunderground v.1.15,2013-06-10 11:50:00,
2013-06-10 07:56:00,77.2,75.7,30.07,SSE,162,5.0,7.0,95,0.00,,,0.00,86,Wunderground v.1.15,2013-06-10 11:56:00,
2013-06-10 08:01:00,77.5,75.6,30.06,SSE,159,6.0,8.0,94,0.00,,,0.00,206,Wunderground v.1.15,2013-06-10 12:01:00,
2013-06-10 08:06:00,77.8,75.9,30.07,SSE,159,7.0,8.0,94,0.00,,,0.00,236,Wunderground v.1.15,2013-06-10 12:06:00,
2013-06-10 08:12:00,78.2,76.0,30.07,South,169,7.0,11.0,93,0.00,,,0.00,179,Wunderground v.1.15,2013-06-10 12:12:00,
2013-06-10 08:18:00,78.5,76.0,30.07,SSE,161,7.0,11.0,92,0.00,,,0.00,192,Wunderground v.1.15,2013-06-10 12:18:00,
2013-06-10 08:23:00,78.6,76.1,30.07,SSE,157,6.0,8.0,92,0.00,,,0.00,251,Wunderground v.1.15,2013-06-10 12:23:00,
2013-06-10 08:28:00,78.7,75.8,30.07,SSE,159,7.0,9.0,91,0.00,,,0.00,243,Wunderground v.1.15,2013-06-10 12:28:00,
2013-06-10 08:34:00,78.9,76.0,30.08,SSE,167,7.0,10.0,91,0.00,,,0.00,213,Wunderground v.1.15,2013-06-10 12:34:00,
2013-06-10 08:39:00,78.9,76.0,30.08,South,171,7.0,10.0,91,0.00,,,0.00,338,Wunderground v.1.15,2013-06-10 12:39:00,
2013-06-10 08:44:00,79.1,76.2,30.08,SSE,165,7.0,8.0,91,0.00,,,0.00,357,Wunderground v.1.15,2013-06-10 12:44:00,
2013-06-10 08:49:00,79.3,76.4,30.08,South,175,8.0,10.0,91,0.00,,,0.00,413,Wunderground v.1.15,2013-06-10 12:49:00,
2013-06-10 08:55:00,79.5,76.3,30.08,SSE,168,8.0,10.0,90,0.00,,,0.00,348,Wunderground v.1.15,2013-06-10 12:55:00,
2013-06-10 09:00:00,79.8,76.6,30.08,SSE,165,8.0,9.0,90,0.00,,,0.00,462,Wunderground v.1.15,2013-06-10 13:00:00,
2013-06-10 09:06:00,80.0,76.5,30.08,South,179,7.0,12.0,89,0.00,,,0.00,545,Wunderground v.1.15,2013-06-10 13:06:00,
2013-06-10 09:11:00,80.2,76.7,30.08,SSW,192,6.0,12.0,89,0.00,,,0.00,278,Wunderground v.1.15,2013-06-10 13:11:00,
2013-06-10 09:16:00,80.2,76.3,30.08,South,187,6.0,12.0,88,0.00,,,0.00,163,Wunderground v.1.15,2013-06-10 13:16:00,
2013-06-10 09:21:00,80.2,76.3,30.08,South,179,8.0,14.0,88,0.00,,,0.00,279,Wunderground v.1.15,2013-06-10 13:21:00,
2013-06-10 09:27:00,80.5,76.6,30.09,South,174,9.0,14.0,88,0.00,,,0.00,183,Wunderground v.1.15,2013-06-10 13:27:00,
2013-06-10 09:32:00,80.5,76.3,30.09,SSE,168,10.0,12.0,87,0.00,,,0.00,165,Wunderground v.1.15,2013-06-10 13:32:00,
2013-06-10 09:37:00,80.8,76.6,30.09,South,171,10.0,12.0,87,0.00,,,0.00,666,Wunderground v.1.15,2013-06-10 13:37:00,
2013-06-10 09:42:00,81.0,76.8,30.08,SSE,164,10.0,12.0,87,0.00,,,0.00,698,Wunderground v.1.15,2013-06-10 13:42:00,
2013-06-10 09:48:00,81.3,76.7,30.08,SSE,165,11.0,13.0,86,0.00,,,0.00,645,Wunderground v.1.15,2013-06-10 13:48:00,
2013-06-10 09:53:00,81.5,76.6,30.08,South,177,11.0,14.0,85,0.00,,,0.00,656,Wunderground v.1.15,2013-06-10 13:53:00,
2013-06-10 09:58:00,81.4,76.1,30.09,South,189,11.0,14.0,84,0.00,,,0.00,693,Wunderground v.1.15,2013-06-10 13:58:00,
2013-06-10 10:04:00,81.5,76.6,30.09,South,186,12.0,15.0,85,0.00,,,0.00,554,Wunderground v.1.15,2013-06-10 14:04:00,
2013-06-10 10:09:00,81.6,76.3,30.09,South,176,12.0,16.0,84,0.00,,,0.00,701,Wunderground v.1.15,2013-06-10 14:09:00,
2013-06-10 10:14:00,81.8,76.1,30.09,South,174,11.0,15.0,83,0.00,,,0.00,731,Wunderground v.1.15,2013-06-10 14:14:00,
2013-06-10 10:20:00,82.1,76.1,30.08,South,173,10.0,15.0,82,0.00,,,0.00,749,Wunderground v.1.15,2013-06-10 14:20:00,
2013-06-10 10:25:00,82.4,76.3,30.08,SSE,154,10.0,15.0,82,0.00,,,0.00,772,Wunderground v.1.15,2013-06-10 14:25:00,
2013-06-10 10:30:00,82.6,76.2,30.08,SSE,155,9.0,15.0,81,0.00,,,0.00,772,Wunderground v.1.15,2013-06-10 14:30:00,
2013-06-10 10:36:00,82.9,76.5,30.08,SSW,207,8.0,15.0,81,0.00,,,0.00,773,Wunderground v.1.15,2013-06-10 14:36:00,
2013-06-10 10:41:00,83.0,75.4,30.08,South,180,9.0,15.0,78,0.00,,,0.00,831,Wunderground v.1.15,2013-06-10 14:41:00,
2013-06-10 10:46:00,82.9,75.7,30.08,South,173,10.0,15.0,79,0.00,,,0.00,160,Wunderground v.1.15,2013-06-10 14:46:00,
2013-06-10 10:52:00,82.9,74.9,30.09,South,170,10.0,15.0,77,0.00,,,0.00,863,Wunderground v.1.15,2013-06-10 14:52:00,
2013-06-10 10:57:00,83.2,76.0,30.08,SSW,198,8.0,15.0,79,0.00,,,0.00,858,Wunderground v.1.15,2013-06-10 14:57:00,
2013-06-10 11:02:00,83.6,76.0,30.08,South,173,7.0,17.0,78,0.00,,,0.00,868,Wunderground v.1.15,2013-06-10 15:02:00,
2013-06-10 11:08:00,83.8,75.8,30.08,South,176,8.0,17.0,77,0.00,,,0.00,914,Wunderground v.1.15,2013-06-10 15:08:00,
2013-06-10 11:13:00,83.9,75.5,30.08,SSE,159,10.0,17.0,76,0.00,,,0.00,932,Wunderground v.1.15,2013-06-10 15:13:00,
2013-06-10 11:18:00,84.2,75.4,30.08,SSW,211,9.0,17.0,75,0.00,,,0.00,972,Wunderground v.1.15,2013-06-10 15:18:00,
2013-06-10 11:24:00,84.8,75.6,30.08,SSW,207,8.0,17.0,74,0.00,,,0.00,928,Wunderground v.1.15,2013-06-10 15:24:00,
2013-06-10 11:29:00,85.0,75.8,30.08,SSW,199,8.0,17.0,74,0.00,,,0.00,944,Wunderground v.1.15,2013-06-10 15:29:00,
2013-06-10 11:34:00,85.1,75.9,30.08,SW,219,8.0,17.0,74,0.00,,,0.00,946,Wunderground v.1.15,2013-06-10 15:34:00,
2013-06-10 11:40:00,85.2,75.1,30.08,South,182,8.0,8.0,72,0.00,,,0.00,944,Wunderground v.1.15,2013-06-10 15:40:00,
2013-06-10 11:45:00,84.9,75.7,30.07,SSW,196,8.0,17.0,74,0.00,,,0.00,953,Wunderground v.1.15,2013-06-10 15:45:00,
2013-06-10 11:50:00,85.0,75.8,30.07,SSW,196,7.0,7.0,74,0.00,,,0.00,912,Wunderground v.1.15,2013-06-10 15:50:00,
2013-06-10 11:56:00,85.5,76.3,30.07,SW,222,5.0,17.0,74,0.00,,,0.00,914,Wunderground v.1.15,2013-06-10 15:56:00,
2013-06-10 12:01:00,86.1,76.0,30.07,SW,221,5.0,17.0,72,0.00,,,0.00,930,Wunderground v.1.15,2013-06-10 16:01:00,
2013-06-10 12:06:00,86.6,77.7,30.07,SW,222,4.0,17.0,75,0.00,,,0.00,986,Wunderground v.1.15,2013-06-10 16:06:00,
2013-06-10 12:12:00,86.8,76.3,30.07,SSW,210,4.0,15.0,71,0.00,,,0.00,970,Wunderground v.1.15,2013-06-10 16:12:00,
2013-06-10 12:17:00,86.7,75.7,30.06,SW,220,4.0,15.0,70,0.00,,,0.00,1005,Wunderground v.1.15,2013-06-10 16:17:00,
2013-06-10 12:22:00,86.8,75.0,30.07,SSW,202,5.0,15.0,68,0.00,,,0.00,1030,Wunderground v.1.15,2013-06-10 16:22:00,
2013-06-10 12:28:00,86.7,76.2,30.06,SW,223,6.0,15.0,71,0.00,,,0.00,984,Wunderground v.1.15,2013-06-10 16:28:00,
2013-06-10 12:33:00,87.1,76.5,30.06,SW,223,5.0,15.0,71,0.00,,,0.00,1044,Wunderground v.1.15,2013-06-10 16:33:00,
2013-06-10 12:38:00,87.7,77.1,30.06,SW,216,4.0,15.0,71,0.00,,,0.00,290,Wunderground v.1.15,2013-06-10 16:38:00,
2013-06-10 12:44:00,87.3,75.4,30.06,SSW,213,4.0,15.0,68,0.00,,,0.00,1039,Wunderground v.1.15,2013-06-10 16:44:00,
2013-06-10 12:49:00,87.3,75.4,30.06,SSW,204,5.0,15.0,68,0.00,,,0.00,1016,Wunderground v.1.15,2013-06-10 16:49:00,
2013-06-10 12:54:00,87.3,75.0,30.06,SSW,204,4.0,15.0,67,0.00,,,0.00,1021,Wunderground v.1.15,2013-06-10 16:54:00,
2013-06-10 13:00:00,87.4,76.4,30.06,SSW,204,3.0,15.0,70,0.00,,,0.00,1134,Wunderground v.1.15,2013-06-10 17:00:00,
2013-06-10 13:05:00,87.5,75.6,30.06,SW,217,4.0,15.0,68,0.00,,,0.00,1137,Wunderground v.1.15,2013-06-10 17:05:00,
2013-06-10 13:11:00,87.5,76.5,30.06,SSW,205,7.0,12.0,70,0.00,,,0.00,1013,Wunderground v.1.15,2013-06-10 17:11:00,
2013-06-10 13:17:00,87.8,75.5,30.05,SSW,209,4.0,12.0,67,0.00,,,0.00,1000,Wunderground v.1.15,2013-06-10 17:17:00,
2013-06-10 13:23:00,87.7,75.8,30.05,SSW,194,4.0,12.0,68,0.00,,,0.00,1014,Wunderground v.1.15,2013-06-10 17:23:00,
2013-06-10 13:28:00,87.8,75.0,30.05,SSW,198,3.0,12.0,66,0.00,,,0.00,1041,Wunderground v.1.15,2013-06-10 17:28:00,
2013-06-10 13:33:00,88.3,77.7,30.05,SSW,206,3.0,12.0,71,0.00,,,0.00,1035,Wunderground v.1.15,2013-06-10 17:33:00,
2013-06-10 13:39:00,88.9,77.0,30.05,SSW,206,2.0,12.0,68,0.00,,,0.00,1000,Wunderground v.1.15,2013-06-10 17:39:00,
2013-06-10 13:44:00,89.3,77.3,30.05,SW,217,3.0,12.0,68,0.00,,,0.00,991,Wunderground v.1.15,2013-06-10 17:44:00,
2013-06-10 13:49:00,89.7,77.7,30.05,SW,217,3.0,12.0,68,0.00,,,0.00,1067,Wunderground v.1.15,2013-06-10 17:49:00,
2013-06-10 13:55:00,90.1,76.7,30.04,SW,218,4.0,12.0,65,0.00,,,0.00,1081,Wunderground v.1.15,2013-06-10 17:55:00,
2013-06-10 14:00:00,90.2,77.3,30.04,SSW,212,5.0,5.0,66,0.00,,,0.00,1116,Wunderground v.1.15,2013-06-10 18:00:00,
2013-06-10 14:05:00,89.8,76.0,30.04,SSW,212,3.0,11.0,64,0.00,,,0.00,209,Wunderground v.1.15,2013-06-10 18:05:00,
2013-06-10 14:11:00,90.1,76.3,30.03,SSW,212,1.0,11.0,64,0.00,,,0.00,1048,Wunderground v.1.15,2013-06-10 18:11:00,
2013-06-10 14:16:00,89.9,75.1,30.03,South,175,3.0,11.0,62,0.00,,,0.00,1020,Wunderground v.1.15,2013-06-10 18:16:00,
2013-06-10 14:21:00,89.2,75.4,30.03,South,176,5.0,11.0,64,0.00,,,0.00,1013,Wunderground v.1.15,2013-06-10 18:21:00,
2013-06-10 14:27:00,88.9,74.2,30.03,SSE,149,7.0,11.0,62,0.00,,,0.00,1016,Wunderground v.1.15,2013-06-10 18:27:00,
2013-06-10 14:32:00,89.3,74.6,30.03,SE,145,5.0,11.0,62,0.00,,,0.00,1025,Wunderground v.1.15,2013-06-10 18:32:00,
2013-06-10 14:38:00,89.5,75.2,30.03,SSE,166,5.0,11.0,63,0.00,,,0.00,998,Wunderground v.1.15,2013-06-10 18:38:00,
2013-06-10 14:43:00,89.2,76.4,30.03,SSE,163,8.0,13.0,66,0.00,,,0.00,990,Wunderground v.1.15,2013-06-10 18:43:00,
2013-06-10 14:48:00,88.8,75.0,30.03,SSE,162,9.0,13.0,64,0.00,,,0.00,993,Wunderground v.1.15,2013-06-10 18:48:00,
2013-06-10 14:54:00,88.9,76.1,30.02,SSE,167,6.0,11.0,66,0.00,,,0.00,1000,Wunderground v.1.15,2013-06-10 18:54:00,
2013-06-10 14:59:00,89.2,74.5,30.02,SSE,160,6.0,11.0,62,0.00,,,0.00,1018,Wunderground v.1.15,2013-06-10 18:59:00,
2013-06-10 15:04:00,89.7,76.4,30.02,South,181,5.0,12.0,65,0.00,,,0.00,1025,Wunderground v.1.15,2013-06-10 19:04:00,
2013-06-10 15:10:00,89.3,75.5,30.02,South,185,7.0,7.0,64,0.00,,,0.00,1030,Wunderground v.1.15,2013-06-10 19:10:00,
2013-06-10 15:15:00,89.3,76.0,30.01,South,185,5.0,12.0,65,0.00,,,0.00,983,Wunderground v.1.15,2013-06-10 19:15:00,
2013-06-10 15:20:00,89.4,75.1,30.01,SSW,192,5.0,5.0,63,0.00,,,0.00,977,Wunderground v.1.15,2013-06-10 19:20:00,
2013-06-10 15:26:00,90.0,77.1,30.01,SSW,209,5.0,12.0,66,0.00,,,0.00,1048,Wunderground v.1.15,2013-06-10 19:26:00,
2013-06-10 15:31:00,90.5,78.0,30.01,SSW,208,4.0,12.0,67,0.00,,,0.00,1081,Wunderground v.1.15,2013-06-10 19:31:00,
2013-06-10 15:36:00,90.1,75.8,30.01,SE,143,4.0,12.0,63,0.00,,,0.00,315,Wunderground v.1.15,2013-06-10 19:36:00,
2013-06-10 15:42:00,90.1,78.1,30.00,SE,138,7.0,12.0,68,0.00,,,0.00,983,Wunderground v.1.15,2013-06-10 19:42:00,
2013-06-10 15:47:00,90.1,77.7,30.00,East,98,7.0,12.0,67,0.00,,,0.00,942,Wunderground v.1.15,2013-06-10 19:47:00,
2013-06-10 15:52:00,90.1,78.6,30.00,ESE,122,6.0,12.0,69,0.00,,,0.00,290,Wunderground v.1.15,2013-06-10 19:52:00,
2013-06-10 15:58:00,90.1,78.1,30.00,SE,128,4.0,12.0,68,0.00,,,0.00,889,Wunderground v.1.15,2013-06-10 19:58:00,
2013-06-10 16:03:00,90.4,77.9,30.00,ESE,121,4.0,14.0,67,0.00,,,0.00,921,Wunderground v.1.15,2013-06-10 20:03:00,
2013-06-10 16:08:00,89.9,77.5,30.00,SE,144,6.0,14.0,67,0.00,,,0.00,236,Wunderground v.1.15,2013-06-10 20:08:00,
2013-06-10 16:14:00,89.0,78.4,30.00,SE,138,9.0,14.0,71,0.00,,,0.00,132,Wunderground v.1.15,2013-06-10 20:14:00,
2013-06-10 16:19:00,88.2,78.0,30.00,SE,144,10.0,14.0,72,0.00,,,0.00,77,Wunderground v.1.15,2013-06-10 20:19:00,
2013-06-10 16:24:00,87.7,78.0,30.00,SE,143,9.0,14.0,73,0.00,,,0.00,63,Wunderground v.1.15,2013-06-10 20:24:00,
2013-06-10 16:30:00,87.0,77.3,30.00,SSE,149,9.0,9.0,73,0.00,,,0.00,62,Wunderground v.1.15,2013-06-10 20:30:00,
2013-06-10 16:35:00,86.7,77.0,30.01,SE,144,8.0,14.0,73,0.00,,,0.00,72,Wunderground v.1.15,2013-06-10 20:35:00,
2013-06-10 16:40:00,86.5,77.2,30.01,SSE,157,7.0,14.0,74,0.00,,,0.00,93,Wunderground v.1.15,2013-06-10 20:40:00,
2013-06-10 16:46:00,86.3,78.6,30.01,West,267,6.0,14.0,78,0.00,,,0.00,142,Wunderground v.1.15,2013-06-10 20:46:00,
2013-06-10 16:51:00,85.4,78.9,30.00,WNW,286,6.0,14.0,81,0.00,,,0.00,179,Wunderground v.1.15,2013-06-10 20:51:00,
2013-06-10 16:56:00,84.4,78.3,30.01,WNW,286,3.0,14.0,82,0.00,,,0.00,74,Wunderground v.1.15,2013-06-10 20:56:00,
2013-06-10 17:01:00,83.6,77.5,30.02,South,171,2.0,15.0,82,0.00,,,0.00,51,Wunderground v.1.15,2013-06-10 21:01:00,
2013-06-10 17:07:00,81.8,74.6,30.02,South,187,11.0,20.0,79,0.00,,,0.00,28,Wunderground v.1.15,2013-06-10 21:07:00,
2013-06-10 17:13:00,80.6,74.6,30.02,West,261,15.0,18.0,82,0.00,,,0.00,14,Wunderground v.1.15,2013-06-10 21:13:00,
2013-06-10 17:18:00,79.7,74.1,30.03,West,266,16.0,22.0,83,0.00,,,0.00,14,Wunderground v.1.15,2013-06-10 21:18:00,
2013-06-10 17:23:00,79.1,73.8,30.04,SW,231,14.0,15.0,84,0.00,,,0.01,19,Wunderground v.1.15,2013-06-10 21:23:00,
2013-06-10 17:28:00,78.1,72.9,30.04,SW,234,8.0,15.0,84,0.46,,,0.04,26,Wunderground v.1.15,2013-06-10 21:28:00,
2013-06-10 17:34:00,77.1,71.5,30.01,WSW,253,4.0,15.0,83,0.17,,,0.06,30,Wunderground v.1.15,2013-06-10 21:34:00,
2013-06-10 17:39:00,76.6,71.4,30.00,WSW,247,2.0,15.0,84,0.07,,,0.06,37,Wunderground v.1.15,2013-06-10 21:39:00,
2013-06-10 17:45:00,76.3,71.5,30.00,WSW,237,2.0,15.0,85,0.06,,,0.07,44,Wunderground v.1.15,2013-06-10 21:45:00,
2013-06-10 17:50:00,76.1,72.3,30.01,North,360,2.0,15.0,88,0.06,,,0.07,47,Wunderground v.1.15,2013-06-10 21:50:00,
2013-06-10 17:55:00,76.0,72.5,30.01,NE,38,4.0,15.0,89,0.04,,,0.07,51,Wunderground v.1.15,2013-06-10 21:55:00,
2013-06-10 18:01:00,76.0,72.9,30.01,NE,40,4.0,28.0,90,0.00,,,0.07,62,Wunderground v.1.15,2013-06-10 22:01:00,
2013-06-10 18:06:00,76.0,73.2,30.01,NE,47,3.0,28.0,91,0.00,,,0.07,74,Wunderground v.1.15,2013-06-10 22:06:00,
2013-06-10 18:11:00,76.0,73.2,30.01,NE,47,3.0,28.0,91,0.00,,,0.07,84,Wunderground v.1.15,2013-06-10 22:11:00,
2013-06-10 18:17:00,76.1,73.3,30.01,NE,48,2.0,28.0,91,0.00,,,0.07,86,Wunderground v.1.15,2013-06-10 22:17:00,
2013-06-10 18:22:00,76.4,73.6,30.02,NE,48,2.0,28.0,91,0.00,,,0.07,86,Wunderground v.1.15,2013-06-10 22:22:00,
2013-06-10 18:27:00,76.5,73.7,30.02,NE,48,1.0,28.0,91,0.00,,,0.07,84,Wunderground v.1.15,2013-06-10 22:27:00,
2013-06-10 18:33:00,76.7,73.9,30.02,NE,48,2.0,28.0,91,0.00,,,0.07,88,Wunderground v.1.15,2013-06-10 22:33:00,
2013-06-10 18:38:00,76.8,74.3,30.02,NE,48,3.0,28.0,92,0.00,,,0.07,91,Wunderground v.1.15,2013-06-10 22:38:00,
2013-06-10 18:43:00,76.8,74.0,30.02,NE,34,2.0,28.0,91,0.00,,,0.07,107,Wunderground v.1.15,2013-06-10 22:43:00,
2013-06-10 18:48:00,77.1,74.6,30.02,NNE,33,4.0,28.0,92,0.00,,,0.07,288,Wunderground v.1.15,2013-06-10 22:48:00,
2013-06-10 18:54:00,77.7,75.5,30.02,NE,35,3.0,28.0,93,0.00,,,0.07,288,Wunderground v.1.15,2013-06-10 22:54:00,
2013-06-10 18:59:00,78.2,75.7,30.02,NE,35,2.0,28.0,92,0.00,,,0.07,248,Wunderground v.1.15,2013-06-10 22:59:00,
2013-06-10 19:05:00,78.4,75.6,30.02,NE,35,2.0,28.0,91,0.00,,,0.07,169,Wunderground v.1.15,2013-06-10 23:05:00,
2013-06-10 19:10:00,78.6,75.4,30.01,NE,35,2.0,2.0,90,0.00,,,0.07,130,Wunderground v.1.15,2013-06-10 23:10:00,
2013-06-10 19:15:00,78.6,75.4,30.02,NE,35,1.0,8.0,90,0.00,,,0.07,121,Wunderground v.1.15,2013-06-10 23:15:00,
2013-06-10 19:21:00,78.7,75.5,30.01,NE,35,0.0,8.0,90,0.00,,,0.07,123,Wunderground v.1.15,2013-06-10 23:21:00,
2013-06-10 19:26:00,78.9,75.7,30.02,NE,35,0.0,8.0,90,0.00,,,0.07,179,Wunderground v.1.15,2013-06-10 23:26:00,
2013-06-10 19:31:00,79.2,76.0,30.02,NE,35,0.0,8.0,90,0.00,,,0.07,137,Wunderground v.1.15,2013-06-10 23:31:00,
2013-06-10 19:37:00,79.4,75.9,30.02,NE,35,0.0,8.0,89,0.00,,,0.07,104,Wunderground v.1.15,2013-06-10 23:37:00,
2013-06-10 19:42:00,79.5,76.0,30.02,NE,35,0.0,8.0,89,0.00,,,0.07,69,Wunderground v.1.15,2013-06-10 23:42:00,
2013-06-10 19:47:00,79.5,75.6,30.02,NE,35,0.0,8.0,88,0.00,,,0.07,56,Wunderground v.1.15,2013-06-10 23:47:00,
2013-06-10 19:53:00,79.5,75.6,30.02,NE,35,0.0,8.0,88,0.00,,,0.07,47,Wunderground v.1.15,2013-06-10 23:53:00,
2013-06-10 19:58:00,79.4,75.5,30.02,NE,35,0.0,8.0,88,0.00,,,0.07,44,Wunderground v.1.15,2013-06-10 23:58:00,
2013-06-10 20:03:00,79.3,75.1,30.02,NE,35,1.0,8.0,87,0.00,,,0.07,32,Wunderground v.1.15,2013-06-11 00:03:00,
2013-06-10 20:09:00,79.3,75.4,30.02,NE,41,2.0,8.0,88,0.00,,,0.07,19,Wunderground v.1.15,2013-06-11 00:09:00,
2013-06-10 20:14:00,79.4,75.5,30.02,East,94,3.0,8.0,88,0.00,,,0.07,12,Wunderground v.1.15,2013-06-11 00:14:00,
2013-06-10 20:20:00,79.6,75.7,30.02,SE,138,4.0,4.0,88,0.00,,,0.07,5,Wunderground v.1.15,2013-06-11 00:20:00,
2013-06-10 20:26:00,79.7,75.8,30.02,SSE,152,5.0,8.0,88,0.00,,,0.07,0,Wunderground v.1.15,2013-06-11 00:26:00,
2013-06-10 20:31:00,79.7,75.8,30.02,SE,145,5.0,8.0,88,0.00,,,0.07,0,Wunderground v.1.15,2013-06-11 00:31:00,
2013-06-10 20:36:00,79.7,75.8,30.02,SE,138,4.0,8.0,88,0.00,,,0.07,0,Wunderground v.1.15,2013-06-11 00:36:00,
2013-06-10 20:42:00,79.7,76.2,30.02,SE,145,4.0,8.0,89,0.00,,,0.07,0,Wunderground v.1.15,2013-06-11 00:42:00,
2013-06-10 20:47:00,79.6,75.7,30.02,SE,144,4.0,8.0,88,0.00,,,0.07,0,Wunderground v.1.15,2013-06-11 00:47:00,
2013-06-10 20:52:00,79.6,75.7,30.02,SE,144,3.0,8.0,88,0.00,,,0.07,0,Wunderground v.1.15,2013-06-11 00:52:00,
2013-06-10 20:58:00,79.4,75.9,30.03,SE,144,2.0,8.0,89,0.00,,,0.07,0,Wunderground v.1.15,2013-06-11 00:58:00,
2013-06-10 21:03:00,79.3,75.8,30.03,SE,144,2.0,8.0,89,0.00,,,0.07,0,Wunderground v.1.15,2013-06-11 01:03:00,
2013-06-10 21:08:00,79.2,75.7,30.03,SE,138,2.0,8.0,89,0.00,,,0.07,0,Wunderground v.1.15,2013-06-11 01:08:00,
2013-06-10 21:14:00,79.2,76.0,30.04,SE,138,3.0,7.0,90,0.00,,,0.07,0,Wunderground v.1.15,2013-06-11 01:14:00,
2013-06-10 21:19:00,79.2,76.0,30.04,SE,138,3.0,7.0,90,0.00,,,0.07,0,Wunderground v.1.15,2013-06-11 01:19:00,
2013-06-10 21:24:00,79.2,76.0,30.04,SE,138,3.0,7.0,90,0.00,,,0.07,0,Wunderground v.1.15,2013-06-11 01:24:00,
2013-06-10 21:30:00,79.1,75.9,30.04,SE,138,2.0,2.0,90,0.00,,,0.07,0,Wunderground v.1.15,2013-06-11 01:30:00,
2013-06-10 21:35:00,79.0,75.8,30.04,SE,138,2.0,7.0,90,0.00,,,0.07,0,Wunderground v.1.15,2013-06-11 01:35:00,
2013-06-10 21:40:00,78.9,75.7,30.04,SE,138,1.0,1.0,90,0.00,,,0.07,0,Wunderground v.1.15,2013-06-11 01:40:00,
2013-06-10 21:45:00,78.8,75.6,30.04,SE,138,0.0,7.0,90,0.00,,,0.07,0,Wunderground v.1.15,2013-06-11 01:45:00,
2013-06-10 21:51:00,78.7,75.8,30.05,SE,138,0.0,7.0,91,0.00,,,0.07,0,Wunderground v.1.15,2013-06-11 01:51:00,
2013-06-10 21:56:00,78.6,75.8,30.05,SE,138,0.0,7.0,91,0.00,,,0.07,0,Wunderground v.1.15,2013-06-11 01:56:00,
2013-06-10 22:01:00,78.5,75.7,30.05,SE,138,0.0,7.0,91,0.00,,,0.07,0,Wunderground v.1.15,2013-06-11 02:01:00,
2013-06-10 22:07:00,78.4,75.9,30.05,SE,138,0.0,7.0,92,0.00,,,0.07,0,Wunderground v.1.15,2013-06-11 02:07:00,
2013-06-10 22:12:00,78.3,75.8,30.05,SE,138,0.0,7.0,92,0.00,,,0.07,0,Wunderground v.1.15,2013-06-11 02:12:00,
2013-06-10 22:18:00,78.2,75.7,30.05,SE,138,0.0,7.0,92,0.00,,,0.07,0,Wunderground v.1.15,2013-06-11 02:18:00,
2013-06-10 22:23:00,78.1,75.9,30.06,SE,138,0.0,7.0,93,0.00,,,0.07,0,Wunderground v.1.15,2013-06-11 02:23:00,
2013-06-10 22:28:00,78.1,75.9,30.06,SE,138,1.0,7.0,93,0.00,,,0.07,0,Wunderground v.1.15,2013-06-11 02:28:00,
2013-06-10 22:33:00,78.2,76.0,30.06,SE,138,1.0,7.0,93,0.00,,,0.07,0,Wunderground v.1.15,2013-06-11 02:33:00,
2013-06-10 22:39:00,78.7,76.5,30.06,SE,138,3.0,7.0,93,0.00,,,0.07,0,Wunderground v.1.15,2013-06-11 02:39:00,
2013-06-10 22:44:00,78.9,76.7,30.06,SE,138,3.0,7.0,93,0.00,,,0.07,0,Wunderground v.1.15,2013-06-11 02:44:00,
2013-06-10 22:49:00,79.2,77.0,30.06,SE,138,2.0,7.0,93,0.00,,,0.07,0,Wunderground v.1.15,2013-06-11 02:49:00,
2013-06-10 22:55:00,79.5,77.3,30.06,SSE,155,2.0,7.0,93,0.00,,,0.07,0,Wunderground v.1.15,2013-06-11 02:55:00,
2013-06-10 23:00:00,79.5,77.3,30.07,South,180,3.0,7.0,93,0.00,,,0.07,0,Wunderground v.1.15,2013-06-11 03:00:00,
2013-06-10 23:06:00,79.7,77.5,30.07,SSW,207,4.0,7.0,93,0.00,,,0.07,0,Wunderground v.1.15,2013-06-11 03:06:00,
2013-06-10 23:11:00,79.6,77.1,30.06,SSW,211,5.0,5.0,92,0.00,,,0.07,0,Wunderground v.1.15,2013-06-11 03:11:00,
2013-06-10 23:17:00,79.7,77.5,30.07,SSW,207,5.0,5.0,93,0.00,,,0.07,0,Wunderground v.1.15,2013-06-11 03:17:00,
2013-06-10 23:22:00,79.8,77.6,30.07,SSW,192,5.0,5.0,93,0.00,,,0.07,0,Wunderground v.1.15,2013-06-11 03:22:00,
2013-06-10 23:27:00,79.8,77.6,30.07,South,188,5.0,7.0,93,0.00,,,0.07,0,Wunderground v.1.15,2013-06-11 03:27:00,
2013-06-10 23:33:00,79.8,77.3,30.07,South,182,5.0,5.0,92,0.00,,,0.07,0,Wunderground v.1.15,2013-06-11 03:33:00,
2013-06-10 23:38:00,79.7,77.2,30.07,South,179,5.0,5.0,92,0.00,,,0.07,0,Wunderground v.1.15,2013-06-11 03:38:00,
2013-06-10 23:44:00,79.4,76.9,30.07,South,179,3.0,5.0,92,0.00,,,0.07,0,Wunderground v.1.15,2013-06-11 03:44:00,
2013-06-10 23:49:00,79.1,76.2,30.07,South,179,1.0,5.0,91,0.00,,,0.07,0,Wunderground v.1.15,2013-06-11 03:49:00,
2013-06-10 23:54:00,78.9,76.4,30.07,South,179,0.0,5.0,92,0.00,,,0.07,0,Wunderground v.1.15,2013-06-11 03:54:00,